Baudette, MN

3:57 PM CDT on March 27, 2017 (GMT -0500)
Baudette International

Weather History for KBDE - November, 2012

Change the Weather History Date:

Saturday, November 10, 2012

  Actual Average Record
Temperature  
Mean Temperature 30 °F -  
Max Temperature 33 °F 35 °F 60 °F (1954)
Min Temperature 26 °F 20 °F -8 °F (1933)
Degree Days  
Heating Degree Days 36    
Moisture  
Dew Point 27 °F    
Average Humidity 91    
Maximum Humidity 100    
Minimum Humidity 69    
Precipitation  
Precipitation 0.06 in - - ()
Sea Level Pressure  
Sea Level Pressure 29.78 in    
Wind  
Wind Speed 14 mph (ENE)    
Max Wind Speed 18 mph    
Max Gust Speed 24 mph    
Visibility 4 miles    
Events Rain , Snow    
Averages and records for this station are not official NWS values.
T = Trace of Precipitation, MM = Missing Value Source: NWS Daily Summary

Daily Weather History Graph

Daily Weather History Graph

Search for Another Location

Airport or City:

Trip Planner

Search our weather history database for the weather conditions in past years. The results will help you decide how hot, cold, wet, or windy it might be!

Date:

Astronomy

Nov. 10, 2012 Rise Set
Actual Time 7:20 AM CST 4:44 PM CST
Civil Twilight 6:46 AM CST 5:18 PM CST
Nautical Twilight 6:08 AM CST 5:55 PM CST
Astronomical Twilight 5:31 AM CST 6:32 PM CST
Moon 3:09 AM CST (11/10) 2:45 PM CST (11/10)
Length of Visible Light 10h 31m
Length of Day
9h 23m
Waning Crescent, 14% of the Moon is Illuminated
Nov 10
Waning Crescent
Nov 13
New
Nov 20
First Quarter
Nov 28
Full
Dec 6
Last Quarter

Hourly Weather History & Observations

Time (CST) Temp. Windchill Dew Point Humidity Pressure Visibility Wind Dir Wind Speed Gust Speed Precip Events Conditions
12:12 AM 26.6 °F 14.3 °F 19.4 °F 74% 30.09 in 10.0 mi East 16.1 mph - N/A   Overcast
12:53 AM 28.0 °F 17.0 °F 19.9 °F 72% 30.13 in 10.0 mi East 13.8 mph 21.9 mph N/A   Overcast
1:53 AM 28.0 °F 16.5 °F 19.9 °F 72% 30.09 in 10.0 mi East 15.0 mph - N/A   Overcast
2:10 AM 28.4 °F 15.8 °F 19.4 °F 69% 30.03 in 10.0 mi East 18.4 mph 24.2 mph N/A   Overcast
2:42 AM 28.4 °F 18.0 °F 19.4 °F 69% 30.03 in 10.0 mi East 12.7 mph 21.9 mph N/A   Overcast
2:53 AM 28.0 °F 16.5 °F 19.9 °F 72% 30.07 in 10.0 mi East 15.0 mph 21.9 mph N/A   Overcast
3:53 AM 27.0 °F 15.6 °F 21.9 °F 81% 30.06 in 7.0 mi East 13.8 mph 20.7 mph 0.00 in Snow Light Snow
4:30 AM 26.6 °F 13.4 °F 21.2 °F 80% 29.97 in 10.0 mi East 18.4 mph 23.0 mph 0.00 in   Overcast
4:53 AM 27.0 °F 15.2 °F 21.0 °F 78% 30.02 in 10.0 mi East 15.0 mph 23.0 mph 0.00 in   Overcast
5:53 AM 27.0 °F 15.2 °F 21.9 °F 81% 29.99 in 5.0 mi East 15.0 mph 23.0 mph 0.00 in Snow Light Snow
6:03 AM 26.6 °F 15.2 °F 21.2 °F 80% 29.93 in 9.0 mi East 13.8 mph 20.7 mph 0.00 in   Overcast
6:48 AM 28.4 °F 16.6 °F 24.8 °F 86% 29.93 in 3.0 mi East 16.1 mph 21.9 mph 0.00 in Rain Light Freezing Rain
6:53 AM 27.0 °F 14.7 °F 24.1 °F 89% 29.99 in 5.0 mi East 16.1 mph 20.7 mph N/A Rain Light Freezing Rain
7:13 AM 28.4 °F 16.2 °F 24.8 °F 86% 29.91 in 2.5 mi East 17.3 mph 24.2 mph N/A Rain Light Freezing Rain
7:31 AM 28.4 °F 17.0 °F 24.8 °F 86% 29.91 in 2.5 mi East 15.0 mph - N/A Rain Light Freezing Rain
7:38 AM 26.6 °F 14.7 °F 24.8 °F 93% 29.91 in 4.0 mi East 15.0 mph 23.0 mph N/A Rain Light Freezing Rain
7:53 AM 27.0 °F 15.6 °F 25.0 °F 92% 29.96 in 4.0 mi East 13.8 mph 21.9 mph N/A Rain Light Freezing Rain
8:53 AM 27.0 °F 14.7 °F 25.0 °F 92% 29.92 in 4.0 mi East 16.1 mph - N/A Rain Light Freezing Rain
9:19 AM 28.4 °F 17.5 °F 26.6 °F 93% 29.85 in 4.0 mi East 13.8 mph - N/A   Overcast
9:35 AM 28.4 °F 16.2 °F 26.6 °F 93% 29.84 in 2.5 mi East 17.3 mph 24.2 mph N/A Rain Light Freezing Rain
9:53 AM 28.0 °F 15.3 °F 27.0 °F 96% 29.88 in 2.5 mi East 18.4 mph 24.2 mph N/A Rain Light Freezing Rain
10:00 AM 28.4 °F 17.0 °F 26.6 °F 93% 29.84 in 3.0 mi East 15.0 mph 23.0 mph N/A Rain Light Freezing Rain
10:53 AM 28.9 °F 17.7 °F 27.0 °F 92% 29.86 in 5.0 mi East 15.0 mph 19.6 mph N/A Rain Light Freezing Rain
11:17 AM 30.2 °F 20.2 °F 28.4 °F 93% 29.81 in 2.5 mi East 12.7 mph - N/A Rain Light Freezing Rain
11:53 AM 30.0 °F 19.1 °F 28.9 °F 96% 29.83 in 2.0 mi East 15.0 mph 20.7 mph N/A Rain Light Freezing Rain
12:14 PM 30.2 °F 18.9 °F 28.4 °F 93% 29.76 in 3.0 mi East 16.1 mph - N/A Rain Light Freezing Rain
12:24 PM 30.2 °F 19.8 °F 28.4 °F 93% 29.75 in 1.8 mi East 13.8 mph - N/A Rain Light Freezing Rain
12:53 PM 30.9 °F 21.2 °F 28.9 °F 92% 29.79 in 2.0 mi East 12.7 mph - N/A Rain Light Freezing Rain
1:32 PM 30.2 °F 21.3 °F 28.4 °F 93% 29.72 in 3.0 mi East 10.4 mph - N/A Rain Light Freezing Rain
1:53 PM 30.9 °F 22.8 °F 30.0 °F 96% 29.76 in 3.0 mi ENE 9.2 mph - N/A Rain Light Freezing Rain
2:00 PM 30.2 °F 20.2 °F 30.2 °F 100% 29.70 in 2.5 mi ENE 12.7 mph 18.4 mph N/A Rain Light Freezing Rain
2:14 PM 30.2 °F 20.2 °F 30.2 °F 100% 29.69 in 1.5 mi ENE 12.7 mph - N/A Rain Light Freezing Rain
2:29 PM 30.2 °F 21.3 °F 30.2 °F 100% 29.68 in 1.8 mi East 10.4 mph - N/A   Overcast
2:41 PM 30.2 °F 20.2 °F 30.2 °F 100% 29.68 in 2.0 mi ENE 12.7 mph - N/A   Overcast
2:53 PM 30.9 °F 21.7 °F 30.0 °F 96% 29.73 in 2.0 mi ENE 11.5 mph - N/A   Overcast
3:11 PM 30.2 °F 21.9 °F 30.2 °F 100% 29.67 in 1.8 mi ENE 9.2 mph - N/A   Overcast
3:44 PM 30.2 °F 19.8 °F 30.2 °F 100% 29.65 in 2.5 mi ENE 13.8 mph - N/A   Overcast
3:53 PM 30.9 °F 21.2 °F 30.0 °F 96% 29.70 in 2.5 mi East 12.7 mph - N/A   Overcast
4:11 PM 30.2 °F 20.2 °F 30.2 °F 100% 29.66 in 3.0 mi ENE 12.7 mph - N/A   Overcast
4:53 PM 30.9 °F 21.7 °F 30.0 °F 96% 29.69 in 4.0 mi ENE 11.5 mph - N/A   Overcast
5:21 PM 32.0 °F 24.2 °F 30.2 °F 93% 29.64 in 3.0 mi ENE 9.2 mph - N/A Rain Light Freezing Rain
5:53 PM 32.0 °F 23.0 °F 30.9 °F 96% 29.67 in 4.0 mi East 11.5 mph - N/A Rain Light Freezing Rain
6:53 PM 32.0 °F 23.0 °F 30.9 °F 96% 29.65 in 7.0 mi East 11.5 mph - N/A Rain Light Freezing Rain
7:14 PM 32.0 °F 24.8 °F 30.2 °F 93% 29.59 in 2.5 mi East 8.1 mph - N/A Rain Light Freezing Rain
7:38 PM 32.0 °F 24.8 °F 30.2 °F 93% 29.58 in 2.5 mi East 8.1 mph - N/A   Overcast
7:53 PM 32.0 °F 23.6 °F 30.9 °F 96% 29.61 in 3.0 mi East 10.4 mph - N/A   Overcast
8:53 PM 32.0 °F 24.8 °F 32.0 °F 100% 29.60 in 2.5 mi ENE 8.1 mph - N/A   Overcast
9:31 PM 32.0 °F 25.6 °F 32.0 °F 100% 29.52 in 1.8 mi NE 6.9 mph - 0.02 in   Overcast
9:44 PM 32.0 °F 24.8 °F 32.0 °F 100% 29.50 in 2.5 mi NE 8.1 mph - 0.02 in   Overcast
9:53 PM 32.0 °F 24.8 °F 32.0 °F 100% 29.49 in 3.0 mi NE 8.1 mph - N/A   Overcast
10:27 PM 32.0 °F 25.6 °F 32.0 °F 100% 29.49 in 2.0 mi NE 6.9 mph - 0.01 in   Overcast
10:38 PM 32.0 °F 25.6 °F 32.0 °F 100% 29.48 in 1.8 mi NE 6.9 mph - 0.01 in   Overcast
10:53 PM 33.1 °F 26.9 °F 32.0 °F 96% 29.52 in 2.0 mi NNE 6.9 mph - 0.02 in   Overcast
11:08 PM 32.0 °F 25.6 °F 32.0 °F 100% 29.46 in 1.8 mi NNE 6.9 mph - 0.00 in   Overcast
11:53 PM 33.1 °F 27.7 °F 32.0 °F 96% 29.49 in 2.0 mi North 5.8 mph - 0.04 in   Overcast